When you browse on this site, cookies collect data to enhance your experience and personalize the content and advertising you see.
Visit our Privacy Policy to learn more. By continuing to use the site, you agree to this use of cookies and data.
  • In Spain
  • List of Countries
  • For 7 days
  • Water Temperature
  • Satellite Maps
  • Weather Map
  • Weather Widgets
  • user-avatar
    Login

    Hourly Weather Canillo

    Today, 20 January, Sunday

    Time Temperature Precipitation Wind Pressure Humidity
    00:00 -5°C° 0 mm 2 mps 609 mmHg 78%
    01:00 -3°C° 0.1 mm 1 mps 608 mmHg 80%
    02:00 -3°C° 0.1 mm 1 mps 608 mmHg 83%
    03:00 -3°C° 0.1 mm 1 mps 608 mmHg 86%
    04:00 -3°C° 0.1 mm 1 mps 608 mmHg 85%
    05:00 -3°C° 0.1 mm 1 mps 609 mmHg 84%
    06:00 -3°C° 0.1 mm 1 mps 609 mmHg 83%
    07:00 -2°C° 0 mm 1 mps 609 mmHg 78%
    08:00 -4°C° 0 mm 2 mps 610 mmHg 74%
    09:00 -3°C° 0 mm 2 mps 610 mmHg 69%
    10:00 -2°C° 0 mm 2 mps 611 mmHg 66%
    11:00 -2°C° 0 mm 2 mps 611 mmHg 63%
    12:00 -1°C° 0 mm 2 mps 611 mmHg 60%
    13:00 -1°C° 0 mm 3 mps 611 mmHg 62%
    14:00 -1°C° 0 mm 3 mps 611 mmHg 64%
    15:00 -2°C° 0 mm 3 mps 611 mmHg 65%
    16:00 -3°C° 0 mm 2 mps 611 mmHg 73%
    17:00 -4°C° 0 mm 2 mps 611 mmHg 81%
    18:00 -5°C° 0 mm 2 mps 611 mmHg 90%
    19:00 -5°C° 0 mm 2 mps 611 mmHg 89%
    20:00 -5°C° 0 mm 2 mps 612 mmHg 89%
    21:00 -5°C° 0 mm 2 mps 612 mmHg 89%
    22:00 -5°C° 0.1 mm 2 mps 612 mmHg 89%
    23:00 -5°C° 0.1 mm 2 mps 612 mmHg 89%

    Tomorrow, 21 January, Monday

    Time Temperature Precipitation Wind Pressure Humidity
    00:00 -5°C° 0.1 mm 2 mps 613 mmHg 90%
    01:00 -5°C° 0.1 mm 2 mps 613 mmHg 90%
    02:00 -5°C° 0.1 mm 2 mps 613 mmHg 89%
    03:00 -5°C° 0.1 mm 2 mps 613 mmHg 89%
    04:00 -5°C° 0.2 mm 2 mps 613 mmHg 89%
    05:00 -5°C° 0.2 mm 2 mps 613 mmHg 89%
    06:00 -6°C° 0.2 mm 2 mps 613 mmHg 89%
    07:00 -5°C° 0.2 mm 2 mps 613 mmHg 86%
    08:00 -6°C° 0.2 mm 3 mps 614 mmHg 83%
    09:00 -6°C° 0.2 mm 3 mps 614 mmHg 81%
    10:00 -5°C° 0.1 mm 3 mps 614 mmHg 77%
    11:00 -5°C° 0.1 mm 3 mps 615 mmHg 74%
    12:00 -4°C° 0.1 mm 3 mps 615 mmHg 71%
    13:00 -5°C° 0.1 mm 3 mps 615 mmHg 71%
    14:00 -5°C° 0.1 mm 3 mps 615 mmHg 71%
    15:00 -5°C° 0.1 mm 3 mps 614 mmHg 71%
    16:00 -6°C° 0 mm 3 mps 614 mmHg 77%
    17:00 -6°C° 0 mm 2 mps 614 mmHg 83%
    18:00 -7°C° 0 mm 2 mps 614 mmHg 88%
    19:00 -8°C° 0 mm 2 mps 614 mmHg 89%
    20:00 -8°C° 0 mm 2 mps 614 mmHg 89%
    21:00 -8°C° 0 mm 2 mps 614 mmHg 90%
    22:00 -9°C° 0 mm 2 mps 614 mmHg 89%
    23:00 -9°C° 0 mm 2 mps 613 mmHg 88%

    Day after tomorrow, 22 January, Tuesday

    Time Temperature Precipitation Wind Pressure Humidity
    00:00 -10°C° 0 mm 2 mps 613 mmHg 88%
    01:00 -10°C° 0 mm 2 mps 613 mmHg 80%
    02:00 -10°C° 0 mm 2 mps 612 mmHg 72%
    03:00 -10°C° 0 mm 2 mps 612 mmHg 65%
    04:00 -10°C° 0 mm 2 mps 611 mmHg 60%
    05:00 -10°C° 0 mm 2 mps 611 mmHg 56%
    06:00 -10°C° 0 mm 2 mps 611 mmHg 52%
    07:00 -9°C° 0 mm 2 mps 611 mmHg 50%
    08:00 -6°C° 0 mm 1 mps 611 mmHg 47%
    09:00 -4°C° 0 mm 1 mps 612 mmHg 45%
    10:00 -2°C° 0 mm 1 mps 611 mmHg 45%
    11:00 -1°C° 0 mm 1 mps 611 mmHg 45%
    12:00 +1°C° 0 mm 1 mps 611 mmHg 45%
    13:00 0°C° 0.6 mm 1 mps 610 mmHg 57%
    14:00 -1°C° 0.6 mm 1 mps 608 mmHg 69%
    15:00 -2°C° 0.6 mm 1 mps 607 mmHg 81%
    16:00 -5°C° 0.7 mm 2 mps 607 mmHg 84%
    17:00 -5°C° 0.7 mm 2 mps 606 mmHg 87%
    18:00 -6°C° 0.7 mm 3 mps 606 mmHg 91%
    19:00 -7°C° 0.8 mm 3 mps 605 mmHg 91%
    20:00 -7°C° 0.8 mm 3 mps 605 mmHg 91%
    21:00 -8°C° 0.8 mm 3 mps 605 mmHg 92%
    22:00 -8°C° 1.2 mm 3 mps 605 mmHg 92%
    23:00 -7°C° 1.2 mm 2 mps 604 mmHg 92%

    23 January, Wednesday

    Time Temperature Precipitation Wind Pressure Humidity
    00:00 -8°C° 1.2 mm 2 mps 604 mmHg 93%
    01:00 -9°C° 1.4 mm 3 mps 603 mmHg 93%
    02:00 -10°C° 1.4 mm 3 mps 603 mmHg 93%
    03:00 -11°C° 1.4 mm 4 mps 602 mmHg 94%
    04:00 -11°C° 1.1 mm 4 mps 602 mmHg 94%
    05:00 -12°C° 1.1 mm 4 mps 601 mmHg 94%
    06:00 -12°C° 1.1 mm 4 mps 601 mmHg 95%
    07:00 -14°C° 0.9 mm 5 mps 601 mmHg 94%
    08:00 -14°C° 0.9 mm 5 mps 601 mmHg 93%
    09:00 -14°C° 0.9 mm 5 mps 601 mmHg 92%
    10:00 -15°C° 0.4 mm 6 mps 601 mmHg 91%
    11:00 -15°C° 0.4 mm 7 mps 601 mmHg 90%
    12:00 -15°C° 0.4 mm 7 mps 601 mmHg 89%
    13:00 -15°C° 0.4 mm 7 mps 601 mmHg 90%
    14:00 -16°C° 0.4 mm 8 mps 601 mmHg 90%
    15:00 -16°C° 0.4 mm 8 mps 601 mmHg 90%
    16:00 -16°C° 0.5 mm 8 mps 601 mmHg 91%
    17:00 -15°C° 0.5 mm 7 mps 602 mmHg 92%
    18:00 -15°C° 0.5 mm 7 mps 602 mmHg 92%
    19:00 -15°C° 0.6 mm 7 mps 602 mmHg 93%
    20:00 -15°C° 0.6 mm 7 mps 603 mmHg 93%
    21:00 -15°C° 0.6 mm 7 mps 603 mmHg 93%
    22:00 -17°C° 0.4 mm 7 mps 603 mmHg 92%
    23:00 -17°C° 0.4 mm 8 mps 603 mmHg 91%

    24 January, Thursday

    Time Temperature Precipitation Wind Pressure Humidity
    00:00 -17°C° 0.4 mm 8 mps 603 mmHg 91%
    01:00 -17°C° 0.1 mm 8 mps 603 mmHg 89%
    02:00 -17°C° 0.1 mm 8 mps 602 mmHg 88%
    03:00 -17°C° 0.1 mm 8 mps 602 mmHg 87%
    04:00 -18°C° 0 mm 7 mps 602 mmHg 86%
    05:00 -18°C° 0 mm 7 mps 603 mmHg 86%
    06:00 -18°C° 0 mm 7 mps 603 mmHg 85%
    07:00 -17°C° 0.1 mm 7 mps 603 mmHg 85%
    08:00 -17°C° 0.1 mm 7 mps 604 mmHg 85%
    09:00 -15°C° 0.1 mm 7 mps 605 mmHg 84%
    10:00 -14°C° 0 mm 7 mps 605 mmHg 83%
    11:00 -13°C° 0 mm 7 mps 606 mmHg 82%
    12:00 -12°C° 0 mm 7 mps 606 mmHg 82%
    13:00 -12°C° 0 mm 6 mps 606 mmHg 82%
    14:00 -12°C° 0 mm 6 mps 606 mmHg 83%
    15:00 -12°C° 0 mm 6 mps 606 mmHg 84%
    16:00 -14°C° 0 mm 6 mps 606 mmHg 85%
    17:00 -14°C° 0 mm 5 mps 606 mmHg 87%
    18:00 -15°C° 0 mm 5 mps 607 mmHg 89%
    19:00 -15°C° 0 mm 5 mps 607 mmHg 89%
    20:00 -15°C° 0 mm 5 mps 608 mmHg 89%
    21:00 -15°C° 0 mm 5 mps 608 mmHg 90%
    22:00 -15°C° 0 mm 4 mps 608 mmHg 90%
    23:00 -16°C° 0 mm 4 mps 608 mmHg 89%

    25 January, Friday

    Time Temperature Precipitation Wind Pressure Humidity
    00:00 -16°C° 0 mm 4 mps 608 mmHg 89%
    01:00 -16°C° 0 mm 3 mps 608 mmHg 88%
    02:00 -16°C° 0 mm 3 mps 608 mmHg 87%
    03:00 -17°C° 0 mm 3 mps 608 mmHg 86%
    04:00 -17°C° 0 mm 3 mps 608 mmHg 85%
    05:00 -17°C° 0 mm 3 mps 609 mmHg 84%
    06:00 -17°C° 0 mm 3 mps 609 mmHg 83%
    07:00 -15°C° 0 mm 3 mps 610 mmHg 80%
    08:00 -14°C° 0 mm 3 mps 611 mmHg 77%
    09:00 -12°C° 0 mm 3 mps 612 mmHg 74%
    10:00 -9°C° 0 mm 3 mps 613 mmHg 72%
    11:00 -8°C° 0 mm 3 mps 614 mmHg 70%
    12:00 -7°C° 0 mm 4 mps 614 mmHg 68%
    13:00 -6°C° 0 mm 3 mps 614 mmHg 70%
    14:00 -7°C° 0 mm 3 mps 614 mmHg 72%
    15:00 -7°C° 0 mm 3 mps 614 mmHg 73%
    16:00 -9°C° 0 mm 3 mps 613 mmHg 72%
    17:00 -12°C° 0 mm 3 mps 613 mmHg 72%
    18:00 -14°C° 0 mm 3 mps 612 mmHg 71%
    19:00 -15°C° 0 mm 3 mps 612 mmHg 71%
    20:00 -15°C° 0 mm 3 mps 613 mmHg 71%
    21:00 -15°C° 0 mm 3 mps 613 mmHg 70%
    22:00 -14°C° 0 mm 3 mps 613 mmHg 70%
    23:00 -14°C° 0 mm 3 mps 613 mmHg 69%
    Show more